Location: Stone Trail Observatory
(44.2408°N, 105.6081°W)
Time: 10:03:28
(UTC-06:00)

Iridium 6 - Visible Passes

Search period start: 22 May 2015 00:00
Search period end: 01 June 2015 00:00
Orbit: 776 x 779 km, 86.4° (Epoch: 22 May)

Date Brightness Start Highest point End Pass type
(mag) Time Alt. Az. Time Alt. Az. Time Alt. Az.
22 May 6.2 03:08:36 18° SSE 03:12:19 52° E 03:17:24 10° NNE visible
22 May 7.0 04:49:37 10° WSW 04:53:28 20° WNW 04:57:11 10° NNW visible
23 May 7.1 02:35:21 14° SE 02:38:57 29° E 02:43:28 10° NNE visible
23 May 6.3 04:15:50 15° SW 04:19:37 34° W 04:24:21 10° NNW visible
24 May 7.8 02:02:31 10° ESE 02:05:41 17° E 02:09:03 10° NE visible
24 May 5.6 03:42:34 22° SSW 03:45:57 61° W 03:51:08 10° N visible
25 May 5.6 03:09:19 25° S 03:12:24 75° E 03:17:38 10° N visible
25 May 7.4 04:51:01 10° WSW 04:53:53 14° WNW 04:56:30 10° NW visible
26 May 6.5 02:36:01 21° SE 02:38:59 41° E 02:43:53 10° NNE visible
26 May 6.8 04:16:30 14° SW 04:19:56 25° WNW 04:24:08 10° NNW visible
27 May 7.3 02:02:44 15° ESE 02:05:39 24° E 02:09:48 10° NNE visible
27 May 6.0 03:43:12 22° SW 03:46:09 43° W 03:51:07 10° N visible
28 May 7.9 01:30:06 10° ESE 01:32:24 13° ENE 01:34:59 10° NE visible
28 May 5.5 03:09:54 30° SSW 03:12:32 77° W 03:17:47 10° N visible
29 May 5.9 02:36:35 30° SSE 02:39:03 59° E 02:44:12 10° N visible
29 May 7.2 04:17:04 11° WSW 04:20:18 18° WNW 04:23:42 10° NNW visible
30 May 6.8 02:03:16 22° SE 02:05:39 33° E 02:10:20 10° NNE visible
30 May 6.5 03:43:44 20° SW 03:46:25 31° WNW 03:51:00 10° NNW visible
31 May 7.6 01:29:56 14° ESE 01:32:22 19° E 01:36:03 10° NE visible
31 May 5.8 03:10:24 31° SW 03:12:43 54° W 03:17:50 10° N visible
